Regional Weather Roundup
Issued by NWS

Home | Current Version | Previous Version | Text Only | Print | Product List | Glossary Off
Versions: 1 2 3 4 5 6 7 8 9 10 11 12 13 14 15 16 17 18 19 20 21 22 23 24 25 26 27 28 29 30 31 32 33 34 35 36 37 38 39 40 41 42 43 44 45 46 47 48 49 50

020
ASUS45 KCYS 192310
RWRWY

WYOMING REGIONAL WEATHER ROUNDUP
NATIONAL WEATHER SERVICE CHEYENNE WY
500 PM MDT TUE SEP 19 2017

NOTE:  "FAIR" INDICATES FEW OR NO CLOUDS BELOW 12,000 FEET
WITH NO SIGNIFICANT WEATHER AND/OR OBSTRUCTIONS TO VISIBILITY.

WYZ001-200000-
YELLOWSTONE NATIONAL PARK

CITY           SKY/WX    TMP DP  RH WIND       PRES   REMARKS
LK YELLOWSTONE   N/A     29  28  96 NW9       29.83S WCI  20
W YELLOWSTONE  NOT AVBL

$$
WYZ002>013-054>058-071-098>099-200000-
NORTHERN WYOMING

CITY           SKY/WX    TMP DP  RH WIND       PRES   REMARKS
JACKSON        CLOUDY    41  32  70 S16       29.85S
CODY           PTSUNNY   48  31  51 W12G22    29.76R
GREYBULL       FAIR      56  35  45 N8        29.70R
WORLAND        CLOUDY    52  38  58 NE3       29.72R
SHERIDAN       FAIR      54  33  45 NW10      29.71S
BUFFALO        FAIR      46  38  73 N6        29.74R
GILLETTE       HVY RAIN  45  43  93 NW21G26   29.74R FOG
HULETT         CLOUDY    45  41  87 CALM      29.74R
NEWCASTLE      FAIR      52  43  71 N10G17    29.71S

$$
WYZ014>020-022>026-101>103-200000-
CENTRAL WYOMING

CITY           SKY/WX    TMP DP  RH WIND       PRES   REMARKS
BIG PINEY      FAIR      45  26  47 W25G35    29.92R
PINEDALE       MOCLDY    43  23  45 W24G30    29.91S
DUBOIS         MOCLDY    34  30  86 W16       29.82F WCI  23
LANDER           N/A    N/A N/A N/A MISG      29.80R
RIVERTON       FAIR      53  28  38 W23G38    29.77R
CASPER         PTSUNNY   48  36  63 SW21G31   29.77S
DOUGLAS        CLOUDY    50  30  46 SW25G32   29.80R

$$
WYZ021-027>030-104>119-200000-
SOUTHERN WYOMING

CITY           SKY/WX    TMP DP  RH WIND       PRES   REMARKS
EVANSTON       CLOUDY    44  34  67 SW16      29.97S
FORT BRIDGER   MOCLDY    44  35  71 W16G23    29.99S
ROCK SPRINGS   CLOUDY    42  31  64 SW18      29.93S
DIXON          LGT SNOW  34  33  94 E9        30.02R WCI  27
RAWLINS        CLOUDY    37  34  89 SW15      29.91F WCI  28
SARATOGA       LGT SNOW  32  32 100 SE6       30.01R VSB 3/4 WCI  26
LARAMIE        CLOUDY    46  26  45 NW29      29.89R
CHEYENNE       FAIR      55  29  36 N29G41    29.79R
TORRINGTON     FAIR      61  32  33 NW31G44   29.73R
PINE BLUFFS    FAIR      61  32  33 NW39G46   29.75R

$$




USA.gov is the U.S. government's official web portal to all federal, state and local government web resources and services.